Details From LSZH - Zurich
To LSZC - Buochs
Flight Number -
Tags decoded
Created
Modified
Stats Distance 30 nm / 56 km
Max Altitude 0 ft / 0 m
Waypoints 3
Social Downloads 1
Likes 0
Share VATSIM

Download

Looking for another format? Having issues loading an existing format? Contact us
Advertisement - Login to hide

Notes

Requested: LSZH URIGI LSZC

Route

LSZH URIGI LSZC

ID Type Via Altitude (ft/m) Position (lat/lon) Dist (leg/tot) Name
O LSZH APT - 0 / 0 47.46349 / 8.54996 - / 0 nm Zurich
URIGI FIX - 0 / 0 47.05889 / 8.41361 24 / 24 nm
O LSZC APT - 0 / 0 46.97319 / 8.39736 5 / 30 nm Buochs

Altitude Profile

Advertisement - Login to hide

LSZH

Details ICAO LSZH (ZRH)
Name Zurich
Region Switzerland
Timezone Europe/Zurich (UTC+2.0)
Stats Elevation 1,416 ft / 432 m (AMSL)
Location 47.463500° 8.549950°
Runways 3
Magnetic Variation 2.512° E

METAR

LSZH 230720Z VRB02KT CAVOK 12/06 Q0998 NOSIG

Decode

TAF

TAF LSZH 230525Z 2306/2412 VRB03KT CAVOK TX21/2315Z TN09/2306Z TN07/2404Z BECMG 2309/2312 06006KT PROB40 TEMPO 2315/2321 13008KT BECMG 2319/2322 VRB03KT BECMG 2407/2409 06005KT

Decode

Departure Runways

ID Width Length Bearing (true/mag) Surface Threshold Overrun Markings Lighting
10 197 ft / 60 m 8,196 ft / 2,498 m 95.99° / 93.48° CONCRETE 0 ft / 0 m 62 ft / 19 m APP CENTERLINE EDGE THRESHOLD SALS REIL-UNI
14 197 ft / 60 m 10,816 ft / 3,297 m 137.29° / 134.78° CONCRETE 492 ft / 150 m 75 ft / 23 m PREC-APP CENTERLINE EDGE THRESHOLD CALVERT-ILS TDZ REIL-UNI
16 197 ft / 60 m 12,181 ft / 3,713 m 155.03° / 152.52° CONCRETE 0 ft / 0 m 62 ft / 19 m PREC-APP CENTERLINE EDGE THRESHOLD CALVERT-ILS TDZ REIL-UNI
28 197 ft / 60 m 8,196 ft / 2,498 m 276.02° / 273.51° CONCRETE 0 ft / 0 m 276 ft / 84 m PREC-APP CENTERLINE EDGE THRESHOLD CALVERT-ILS REIL-UNI
32 197 ft / 60 m 10,816 ft / 3,297 m 317.31° / 314.80° CONCRETE 0 ft / 0 m 82 ft / 25 m APP CENTERLINE EDGE THRESHOLD SALS
34 197 ft / 60 m 12,181 ft / 3,713 m 335.05° / 332.54° CONCRETE 1,542 ft / 470 m 49 ft / 15 m PREC-APP CENTERLINE EDGE THRESHOLD CALVERT-ILS TDZ REIL-UNI

LSZC

Details ICAO LSZC (BXO)
Name Buochs
Region Switzerland
Timezone Europe/Zurich (UTC+2.0)
Stats Elevation 1,475 ft / 450 m (AMSL)
Location 46.973200° 8.397360°
Runways 2
Magnetic Variation 2.470° E

METAR

LSZC 230720Z VRB01KT 9999 SCT130 OVC180 15/06 Q0998

Decode

TAF

Not found

Destination Runways

ID Width Length Bearing (true/mag) Surface Threshold Overrun Markings Lighting
07L 131 ft / 40 m 6,570 ft / 2,002 m 64.09° / 61.62° ASPHALT 0 ft / 0 m 650 ft / 198 m APP EDGE THRESHOLD
07R 131 ft / 40 m 4,827 ft / 1,471 m 64.00° / 61.53° ASPHALT 0 ft / 0 m 1,161 ft / 354 m APP
25L 131 ft / 40 m 4,827 ft / 1,471 m 244.01° / 241.54° ASPHALT 0 ft / 0 m 1,161 ft / 354 m APP
25R 131 ft / 40 m 6,570 ft / 2,002 m 244.11° / 241.64° ASPHALT 0 ft / 0 m 650 ft / 198 m APP EDGE THRESHOLD SSALF

Popular Alternatives